Regional Weather Roundup
Issued by NWS Cleveland, OH

Home | Current Version | Previous Version | Graphics & Text | Print | Product List | Glossary On
Versions: 1 2 3 4 5 6 7 8 9 10 11 12 13 14 15 16 17 18 19 20 21 22 23 24 25 26 27 28 29 30 31 32 33 34 35 36 37 38 39 40 41 42 43 44 45 46 47 48 49 50
000
ASUS41 KCLE 012010
RWRCLE
OHIO REGIONAL WEATHER ROUNDUP
NATIONAL WEATHER SERVICE WILMINGTON, OH
400 PM EDT FRI AUG 01 2014

NOTE: "FAIR" INDICATES FEW OR NO CLOUDS BELOW 12,000 FEET WITH NO
SIGNIFICANT WEATHER AND/OR OBSTRUCTIONS TO VISIBILITY.

OHZ001>008-015>018-024>027-034-035-043-044-012100-
   NORTHWEST OHIO

CITY           SKY/WX    TMP DP  RH WIND       PRES   REMARKS
DEFIANCE       MOSUNNY   81  59  47 S5        30.09S
FINDLAY        SUNNY     83  59  44 CALM      30.08F
TOLEDO EXPRESS MOSUNNY   83  58  42 NW9       30.09R
TOLEDO METCALF MOSUNNY   84  58  40 S9        30.08F
LIMA           MOSUNNY   83  60  45 VRB5      30.10F
$$

OHZ009>014-019>023-028>033-038-089-012100-
   NORTHEAST OHIO

CITY           SKY/WX    TMP DP  RH WIND       PRES   REMARKS
CLE-HOPKINS    MOSUNNY   80  63  55 NE10      30.11F
CLE-LAKEFRONT  MOSUNNY   78  64  61 N6        30.09F
CUY CO. ARPT   MOSUNNY   81  68  65 N9        30.12F
LORAIN-ELYRIA  SUNNY     85  58  39 CALM      30.10F
ASHTABULA      MOSUNNY   78  66  66 N6        30.12F
AKRON-CANTON   CLOUDY    74  57  55 SE10      30.13S THUNDER
WOOSTER        MOSUNNY   82  59  45 SE3       30.11F
MANSFIELD      PTSUNNY   82  58  43 VRB3      30.11F
YOUNGSTOWN     PTSUNNY   81  57  43 CALM      30.12F
$$

OHZ042-051>053-060>062-070>072-077>081-012100-
  SOUTHWEST OHIO

CITY           SKY/WX    TMP DP  RH WIND       PRES   REMARKS
CINC-COVINGTON PTSUNNY   83  58  42 NW3       30.08F
CINC-LUNKEN    MOSUNNY   85  58  39 NE5       30.07F
HAMILTON       PTSUNNY   77  68  73 CALM      30.08F
DAYTON         PTSUNNY   81  58  45 E3        30.10F
WRIGHT-PAT AFB PTSUNNY   80  61  52 NE1       30.08F
DAYTON GENERAL PTSUNNY   80  58  46 CALM      30.08F
WILMINGTON     MOSUNNY   81  60  48 E5        30.09F
$$

OHZ036-037-039>041-045>050-054>059-063>069-073>076-082>088-012100-
  CENTRAL AND SOUTHEAST OHIO

CITY           SKY/WX    TMP DP  RH WIND       PRES   REMARKS
COLUMBUS       MOSUNNY   84  62  47 N10       30.08F
OSU AIRPORT    LGT RAIN  70  63  78 N5        30.10F
BOLTON FIELD   SUNNY     82  61  47 S3        30.09F
RICKENBACK AFB MOSUNNY   85  50  29 CALM      30.07F
NEWARK         MOSUNNY   82  59  45 SE7       30.08F
MARION         PTSUNNY   80  57  45 CALM      30.09F
LANCASTER      MOSUNNY   83  60  45 NE3       30.09F
ZANESVILLE     SUNNY     81  57  43 CALM      30.09F
NEW PHILLY     MOSUNNY   81  62  52 E8        30.10F
$$



USA.gov is the U.S. government's official web portal to all federal, state and local government web resources and services.